Time,TemperatureF,DewpointF,PressureIn,WindDirection,WindDirectionDegrees,WindSpeedMPH,WindSpeedGustMPH,Humidity,HourlyPrecipIn,Conditions,Clouds,dailyrainin,SoftwareType,DateUTC
2013-02-27 00:00:00,48.6,48.1,28.96,West,268,6.9,6.9,98,0.01,RA,,0.65,WeatherDisplay:10.37,2013-02-27 05:00:00,
2013-02-27 00:05:00,48.3,47.8,28.96,West,280,4.6,4.6,98,0.01,RA,,0.00,WeatherDisplay:10.37,2013-02-27 05:05:00,
2013-02-27 00:10:00,48.0,47.5,28.96,WSW,254,3.5,3.5,98,0.01,RA,,0.00,WeatherDisplay:10.37,2013-02-27 05:10:00,
2013-02-27 00:15:00,47.9,47.4,28.96,SSW,213,3.5,3.5,98,0.01,CLR,,0.00,WeatherDisplay:10.37,2013-02-27 05:15:00,
2013-02-27 00:20:00,47.7,47.2,28.96,West,278,3.5,3.5,98,0.01,CLR,,0.00,WeatherDisplay:10.37,2013-02-27 05:20:00,
2013-02-27 00:25:00,47.6,47.1,28.96,West,264,5.8,5.8,98,0.01,CLR,,0.00,WeatherDisplay:10.37,2013-02-27 05:25:00,
2013-02-27 00:30:00,47.3,46.8,28.96,SW,222,5.8,5.8,98,0.01,CLR,,0.00,WeatherDisplay:10.37,2013-02-27 05:30:00,
2013-02-27 00:35:00,47.1,46.6,28.96,SW,229,8.1,8.1,98,0.01,CLR,,0.00,WeatherDisplay:10.37,2013-02-27 05:35:00,
2013-02-27 00:40:00,46.8,46.3,28.96,West,263,6.9,6.9,98,0.01,CLR,,0.00,WeatherDisplay:10.37,2013-02-27 05:40:00,
2013-02-27 00:45:00,46.7,46.4,28.96,WSW,258,11.5,11.5,99,0.01,CLR,,0.00,WeatherDisplay:10.37,2013-02-27 05:45:00,
2013-02-27 00:50:00,46.5,46.2,28.96,West,261,5.8,5.8,99,0.01,CLR,,0.00,WeatherDisplay:10.37,2013-02-27 05:50:00,
2013-02-27 00:55:00,46.4,46.1,28.96,WSW,258,11.5,11.5,99,0.00,CLR,,0.00,WeatherDisplay:10.37,2013-02-27 05:55:00,
2013-02-27 01:00:00,46.2,45.9,28.96,West,268,3.5,3.5,99,0.00,CLR,,0.00,WeatherDisplay:10.37,2013-02-27 06:00:00,
2013-02-27 01:05:00,46.0,45.7,28.96,WNW,285,8.1,8.1,99,0.00,CLR,,0.00,WeatherDisplay:10.37,2013-02-27 06:05:00,
2013-02-27 01:10:00,45.7,45.4,28.96,West,280,9.0,9.0,99,0.00,CLR,,0.00,WeatherDisplay:10.37,2013-02-27 06:10:00,
2013-02-27 01:15:00,45.7,45.4,28.96,WSW,257,10.4,10.4,99,0.00,CLR,,0.00,WeatherDisplay:10.37,2013-02-27 06:15:00,
2013-02-27 01:20:00,45.5,45.2,28.96,West,275,10.0,10.0,99,0.00,CLR,,0.00,WeatherDisplay:10.37,2013-02-27 06:20:00,
2013-02-27 01:25:00,45.2,44.9,28.96,WNW,295,6.9,6.9,99,0.00,CLR,,0.00,WeatherDisplay:10.37,2013-02-27 06:25:00,
2013-02-27 01:30:00,45.4,45.1,28.97,SSW,212,6.9,6.9,99,0.00,CLR,,0.00,WeatherDisplay:10.37,2013-02-27 06:30:00,
2013-02-27 01:35:00,45.1,44.8,28.97,West,261,11.5,11.5,99,0.00,CLR,,0.00,WeatherDisplay:10.37,2013-02-27 06:35:00,
2013-02-27 01:40:00,44.8,44.5,28.97,SW,232,8.1,8.1,99,0.00,CLR,,0.00,WeatherDisplay:10.37,2013-02-27 06:40:00,
2013-02-27 01:45:00,44.6,44.3,28.97,WSW,248,11.5,11.5,99,0.00,CLR,,0.00,WeatherDisplay:10.37,2013-02-27 06:45:00,
2013-02-27 01:50:00,44.6,44.3,28.97,SW,227,8.1,8.1,99,0.00,CLR,,0.00,WeatherDisplay:10.37,2013-02-27 06:50:00,
2013-02-27 01:55:00,44.5,44.2,28.97,WSW,258,3.5,3.6,99,0.00,CLR,,0.00,WeatherDisplay:10.37,2013-02-27 06:55:00,
2013-02-27 02:00:00,44.6,44.3,28.97,WSW,244,4.6,4.6,99,0.00,CLR,,0.00,WeatherDisplay:10.37,2013-02-27 07:00:00,
2013-02-27 02:05:00,44.5,44.2,28.97,WSW,254,6.0,6.0,99,0.00,CLR,,0.00,WeatherDisplay:10.37,2013-02-27 07:05:00,
2013-02-27 02:10:00,44.5,44.2,28.97,WSW,241,11.5,11.5,99,0.00,CLR,,0.00,WeatherDisplay:10.37,2013-02-27 07:10:00,
2013-02-27 02:15:00,44.5,44.2,28.96,West,268,8.1,8.1,99,0.00,CLR,,0.00,WeatherDisplay:10.37,2013-02-27 07:15:00,
2013-02-27 02:20:00,44.3,44.0,28.96,WSW,246,6.9,6.9,99,0.00,CLR,,0.00,WeatherDisplay:10.37,2013-02-27 07:20:00,
2013-02-27 02:25:00,44.3,44.0,28.97,WSW,256,5.8,5.8,99,0.00,CLR,,0.00,WeatherDisplay:10.37,2013-02-27 07:25:00,
2013-02-27 02:30:00,44.3,44.0,28.97,WSW,254,8.1,8.1,99,0.00,CLR,,0.00,WeatherDisplay:10.37,2013-02-27 07:30:00,
2013-02-27 02:35:00,44.2,43.9,28.97,SW,234,8.1,8.1,99,0.00,CLR,,0.00,WeatherDisplay:10.37,2013-02-27 07:35:00,
2013-02-27 02:40:00,44.2,43.9,28.97,WSW,247,10.4,10.4,99,0.00,CLR,,0.00,WeatherDisplay:10.37,2013-02-27 07:40:00,
2013-02-27 02:45:00,44.2,43.9,28.97,WSW,251,7.0,7.0,99,0.00,CLR,,0.00,WeatherDisplay:10.37,2013-02-27 07:45:00,
2013-02-27 02:50:00,44.2,43.9,28.97,West,272,5.8,5.8,99,0.00,CLR,,0.00,WeatherDisplay:10.37,2013-02-27 07:50:00,
2013-02-27 02:55:00,44.1,43.8,28.97,WSW,257,8.1,8.1,99,0.00,CLR,,0.00,WeatherDisplay:10.37,2013-02-27 07:55:00,
2013-02-27 03:00:00,43.9,43.6,28.97,WSW,257,8.1,8.1,99,0.00,CLR,,0.00,WeatherDisplay:10.37,2013-02-27 08:00:00,
2013-02-27 03:05:00,43.9,43.6,28.97,West,260,7.0,7.0,99,0.00,CLR,,0.00,WeatherDisplay:10.37,2013-02-27 08:05:00,
2013-02-27 03:10:00,43.9,43.6,28.97,West,264,10.0,10.0,99,0.00,CLR,,0.00,WeatherDisplay:10.37,2013-02-27 08:10:00,
2013-02-27 03:15:00,43.8,43.5,28.97,West,263,12.7,12.7,99,0.00,CLR,,0.00,WeatherDisplay:10.37,2013-02-27 08:15:00,
2013-02-27 03:20:00,43.6,43.3,28.97,SW,236,12.7,12.7,99,0.00,CLR,,0.00,WeatherDisplay:10.37,2013-02-27 08:20:00,
2013-02-27 03:25:00,43.5,43.2,28.96,WSW,253,11.5,11.5,99,0.00,CLR,,0.00,WeatherDisplay:10.37,2013-02-27 08:25:00,
2013-02-27 03:30:00,43.5,43.2,28.96,WSW,258,7.0,7.0,99,0.00,CLR,,0.00,WeatherDisplay:10.37,2013-02-27 08:30:00,
2013-02-27 03:35:00,43.5,43.2,28.96,SSW,212,6.9,6.9,99,0.00,CLR,,0.00,WeatherDisplay:10.37,2013-02-27 08:35:00,
2013-02-27 03:40:00,43.6,43.1,28.95,SSW,210,5.8,5.8,98,0.00,CLR,,0.00,WeatherDisplay:10.37,2013-02-27 08:40:00,
2013-02-27 03:45:00,43.6,43.3,28.95,WSW,237,3.5,3.5,99,0.00,CLR,,0.00,WeatherDisplay:10.37,2013-02-27 08:45:00,
2013-02-27 03:50:00,43.6,43.1,28.95,WSW,246,8.0,8.0,98,0.00,CLR,,0.00,WeatherDisplay:10.37,2013-02-27 08:50:00,
2013-02-27 03:55:00,43.5,43.0,28.95,WSW,244,10.4,10.4,98,0.00,CLR,,0.00,WeatherDisplay:10.37,2013-02-27 08:55:00,
2013-02-27 04:00:00,43.5,43.0,28.95,WSW,240,11.5,11.5,98,0.00,CLR,,0.00,WeatherDisplay:10.37,2013-02-27 09:00:00,
2013-02-27 04:05:00,43.5,43.0,28.95,West,272,4.6,4.6,98,0.00,CLR,,0.00,WeatherDisplay:10.37,2013-02-27 09:05:00,
2013-02-27 04:10:00,43.5,43.0,28.96,WSW,247,6.9,6.9,98,0.00,CLR,,0.00,WeatherDisplay:10.37,2013-02-27 09:10:00,
2013-02-27 04:15:00,43.5,43.0,28.96,WSW,240,11.5,11.5,98,0.00,CLR,,0.00,WeatherDisplay:10.37,2013-02-27 09:15:00,
2013-02-27 04:20:00,43.5,43.0,28.96,West,281,11.5,11.5,98,0.00,CLR,,0.00,WeatherDisplay:10.37,2013-02-27 09:20:00,
2013-02-27 04:25:00,43.5,43.0,28.97,West,260,12.7,12.7,98,0.00,CLR,,0.00,WeatherDisplay:10.37,2013-02-27 09:25:00,
2013-02-27 04:30:00,43.5,43.0,28.97,West,271,10.4,10.4,98,0.00,CLR,,0.00,WeatherDisplay:10.37,2013-02-27 09:30:00,
2013-02-27 04:35:00,43.5,42.7,28.97,West,271,11.5,11.5,97,0.00,CLR,,0.00,WeatherDisplay:10.37,2013-02-27 09:35:00,
2013-02-27 04:40:00,43.3,42.5,28.98,SW,224,10.4,10.4,97,0.00,CLR,,0.00,WeatherDisplay:10.37,2013-02-27 09:40:00,
2013-02-27 04:45:00,43.3,42.5,28.98,WNW,292,11.5,11.5,97,0.00,CLR,,0.00,WeatherDisplay:10.37,2013-02-27 09:45:00,
2013-02-27 04:50:00,43.3,42.2,28.98,West,270,8.1,8.1,96,0.00,CLR,,0.00,WeatherDisplay:10.37,2013-02-27 09:50:00,
2013-02-27 04:55:00,43.3,42.2,28.98,SW,223,9.0,9.0,96,0.00,CLR,,0.00,WeatherDisplay:10.37,2013-02-27 09:55:00,
2013-02-27 05:00:00,43.2,42.1,28.98,West,270,11.5,11.5,96,0.00,CLR,,0.00,WeatherDisplay:10.37,2013-02-27 10:00:00,
2013-02-27 05:05:00,43.2,42.1,28.98,West,270,11.5,11.5,96,0.00,CLR,,0.00,WeatherDisplay:10.37,2013-02-27 10:05:00,
2013-02-27 05:10:00,43.2,41.9,28.99,WSW,241,11.5,11.5,95,0.00,CLR,,0.00,WeatherDisplay:10.37,2013-02-27 10:10:00,
2013-02-27 05:15:00,43.1,41.8,28.99,WNW,294,8.1,8.1,95,0.00,CLR,,0.00,WeatherDisplay:10.37,2013-02-27 10:15:00,
2013-02-27 05:20:00,42.8,41.2,28.99,West,267,11.5,11.5,94,0.00,CLR,,0.00,WeatherDisplay:10.37,2013-02-27 10:20:00,
2013-02-27 05:25:00,42.6,41.0,29.00,NW,308,8.1,8.1,94,0.00,CLR,,0.00,WeatherDisplay:10.37,2013-02-27 10:25:00,
2013-02-27 05:30:00,42.5,40.6,29.00,NW,313,12.7,12.7,93,0.00,CLR,,0.00,WeatherDisplay:10.37,2013-02-27 10:30:00,
2013-02-27 05:35:00,42.3,40.4,29.00,West,268,12.7,12.7,93,0.00,CLR,,0.00,WeatherDisplay:10.37,2013-02-27 10:35:00,
2013-02-27 05:40:00,42.3,40.1,29.00,SW,234,11.5,11.5,92,0.00,CLR,,0.00,WeatherDisplay:10.37,2013-02-27 10:40:00,
2013-02-27 05:46:00,42.3,40.1,29.00,West,274,6.9,6.9,92,0.00,CLR,,0.00,WeatherDisplay:10.37,2013-02-27 10:46:00,
2013-02-27 05:51:00,42.2,40.0,29.00,West,264,10.4,10.4,92,0.00,CLR,,0.00,WeatherDisplay:10.37,2013-02-27 10:51:00,
2013-02-27 05:56:00,42.2,40.0,29.01,WSW,251,11.5,11.5,92,0.00,CLR,,0.00,WeatherDisplay:10.37,2013-02-27 10:56:00,
2013-02-27 06:01:00,42.2,39.8,29.01,West,263,11.5,11.5,91,0.00,CLR,,0.00,WeatherDisplay:10.37,2013-02-27 11:01:00,
2013-02-27 06:07:00,42.2,39.8,29.01,West,271,8.1,8.1,91,0.00,CLR,,0.00,WeatherDisplay:10.37,2013-02-27 11:07:00,
2013-02-27 06:12:00,42.2,39.8,29.02,West,260,12.7,12.7,91,0.00,CLR,,0.00,WeatherDisplay:10.37,2013-02-27 11:12:00,
2013-02-27 06:17:00,42.2,39.8,29.02,West,275,11.5,11.5,91,0.00,CLR,,0.00,WeatherDisplay:10.37,2013-02-27 11:17:00,
2013-02-27 06:22:00,42.1,39.7,29.02,WSW,256,11.5,11.5,91,0.00,CLR,,0.00,WeatherDisplay:10.37,2013-02-27 11:22:00,
2013-02-27 06:27:00,42.1,39.7,29.02,West,265,17.3,17.3,91,0.00,CLR,,0.00,WeatherDisplay:10.37,2013-02-27 11:27:00,
2013-02-27 06:32:00,42.1,39.7,29.02,WSW,254,5.8,5.8,91,0.00,CLR,,0.00,WeatherDisplay:10.37,2013-02-27 11:32:00,
2013-02-27 06:37:00,41.9,39.2,29.02,West,261,10.4,10.4,90,0.00,CLR,,0.00,WeatherDisplay:10.37,2013-02-27 11:37:00,
2013-02-27 06:42:00,41.9,39.2,29.02,WNW,301,5.8,5.8,90,0.00,CLR,,0.00,WeatherDisplay:10.37,2013-02-27 11:42:00,
2013-02-27 06:47:00,41.9,39.2,29.02,West,265,13.8,13.8,90,0.00,CLR,,0.00,WeatherDisplay:10.37,2013-02-27 11:47:00,
2013-02-27 06:52:00,41.9,39.2,29.02,West,277,6.9,6.9,90,0.00,CLR,,0.00,WeatherDisplay:10.37,2013-02-27 11:52:00,
2013-02-27 06:57:00,41.9,39.2,29.03,West,275,10.4,10.4,90,0.00,CLR,,0.00,WeatherDisplay:10.37,2013-02-27 11:57:00,
2013-02-27 07:02:00,41.9,39.5,29.03,West,264,8.1,8.1,91,0.00,CLR,,0.00,WeatherDisplay:10.37,2013-02-27 12:02:00,
2013-02-27 07:07:00,41.8,39.1,29.03,WSW,246,11.5,11.5,90,0.00,CLR,,0.00,WeatherDisplay:10.37,2013-02-27 12:07:00,
2013-02-27 07:12:00,41.8,39.4,29.04,WSW,258,8.1,8.1,91,0.00,CLR,,0.00,WeatherDisplay:10.37,2013-02-27 12:12:00,
2013-02-27 07:17:00,41.8,39.4,29.04,West,272,4.6,4.6,91,0.00,CLR,,0.00,WeatherDisplay:10.37,2013-02-27 12:17:00,
2013-02-27 07:22:00,41.8,39.4,29.04,WNW,296,11.5,11.5,91,0.00,CLR,,0.00,WeatherDisplay:10.37,2013-02-27 12:22:00,
2013-02-27 07:27:00,41.8,39.4,29.05,WSW,248,7.0,7.0,91,0.00,CLR,,0.00,WeatherDisplay:10.37,2013-02-27 12:27:00,
2013-02-27 07:32:00,41.8,39.4,29.05,West,270,11.5,11.5,91,0.00,CLR,,0.00,WeatherDisplay:10.37,2013-02-27 12:32:00,
2013-02-27 07:37:00,41.8,39.4,29.05,West,272,6.9,6.9,91,0.00,CLR,,0.00,WeatherDisplay:10.37,2013-02-27 12:37:00,
2013-02-27 07:42:00,41.8,39.4,29.06,WSW,258,10.4,10.4,91,0.00,CLR,,0.00,WeatherDisplay:10.37,2013-02-27 12:42:00,
2013-02-27 07:47:00,41.9,39.5,29.06,WSW,237,11.5,11.5,91,0.00,CLR,,0.00,WeatherDisplay:10.37,2013-02-27 12:47:00,
2013-02-27 07:52:00,41.9,39.5,29.06,SW,233,4.6,4.6,91,0.00,CLR,,0.00,WeatherDisplay:10.37,2013-02-27 12:52:00,
2013-02-27 07:57:00,41.9,39.5,29.06,SW,233,10.4,10.4,91,0.00,CLR,,0.00,WeatherDisplay:10.37,2013-02-27 12:57:00,
2013-02-27 08:02:00,42.1,39.4,29.06,WSW,239,8.0,8.0,90,0.00,CLR,,0.00,WeatherDisplay:10.37,2013-02-27 13:02:00,
2013-02-27 08:07:00,42.2,39.5,29.06,West,272,11.5,11.5,90,0.00,CLR,,0.00,WeatherDisplay:10.37,2013-02-27 13:07:00,
2013-02-27 08:12:00,42.5,39.5,29.07,West,272,10.4,10.4,89,0.00,CLR,,0.00,WeatherDisplay:10.37,2013-02-27 13:12:00,
2013-02-27 08:17:00,42.6,39.6,29.07,SW,219,6.9,6.9,89,0.00,CLR,,0.00,WeatherDisplay:10.37,2013-02-27 13:17:00,
2013-02-27 08:22:00,42.8,39.8,29.07,WNW,287,11.5,11.5,89,0.00,CLR,,0.00,WeatherDisplay:10.37,2013-02-27 13:22:00,
2013-02-27 08:27:00,42.9,39.9,29.08,WSW,247,8.1,8.1,89,0.00,CLR,,0.00,WeatherDisplay:10.37,2013-02-27 13:27:00,
2013-02-27 08:32:00,43.1,39.8,29.08,WSW,248,11.5,11.5,88,0.00,CLR,,0.00,WeatherDisplay:10.37,2013-02-27 13:32:00,
2013-02-27 08:37:00,43.2,39.6,29.08,WSW,240,11.5,11.5,87,0.00,CLR,,0.00,WeatherDisplay:10.37,2013-02-27 13:37:00,
2013-02-27 08:42:00,43.3,39.7,29.09,West,281,7.0,7.2,87,0.00,CLR,,0.00,WeatherDisplay:10.37,2013-02-27 13:42:00,
2013-02-27 08:47:00,43.5,39.9,29.09,WNW,291,11.5,11.5,87,0.00,CLR,,0.00,WeatherDisplay:10.37,2013-02-27 13:47:00,
2013-02-27 08:52:00,43.6,40.0,29.09,WNW,294,5.8,5.9,87,0.00,CLR,,0.00,WeatherDisplay:10.37,2013-02-27 13:52:00,
2013-02-27 08:57:00,43.8,39.9,29.10,SW,223,8.1,8.1,86,0.00,CLR,,0.00,WeatherDisplay:10.37,2013-02-27 13:57:00,
2013-02-27 09:02:00,43.9,40.0,29.10,West,274,11.5,11.5,86,0.00,CLR,,0.00,WeatherDisplay:10.37,2013-02-27 14:02:00,
2013-02-27 09:07:00,44.2,40.3,29.10,West,261,10.0,10.0,86,0.00,CLR,,0.00,WeatherDisplay:10.37,2013-02-27 14:07:00,
2013-02-27 09:12:00,44.1,39.6,29.11,West,260,10.4,10.4,84,0.00,CLR,,0.00,WeatherDisplay:10.37,2013-02-27 14:12:00,
2013-02-27 09:17:00,44.3,39.5,29.11,WNW,294,8.1,8.1,83,0.00,CLR,,0.00,WeatherDisplay:10.37,2013-02-27 14:17:00,
2013-02-27 09:22:00,44.6,39.4,29.11,SW,236,11.5,11.5,82,0.00,CLR,,0.00,WeatherDisplay:10.37,2013-02-27 14:22:00,
2013-02-27 09:27:00,44.9,39.4,29.11,WSW,250,11.5,11.5,81,0.00,CLR,,0.00,WeatherDisplay:10.37,2013-02-27 14:27:00,
2013-02-27 09:32:00,45.5,40.0,29.11,SSW,206,11.0,11.0,81,0.00,CLR,,0.00,WeatherDisplay:10.37,2013-02-27 14:32:00,
2013-02-27 09:37:00,45.7,38.6,29.11,SW,233,17.3,17.3,76,0.00,CLR,,0.00,WeatherDisplay:10.37,2013-02-27 14:37:00,
2013-02-27 09:42:00,46.2,39.1,29.10,West,277,5.8,5.8,76,0.00,CLR,,0.00,WeatherDisplay:10.37,2013-02-27 14:42:00,
2013-02-27 09:47:00,46.2,38.7,29.10,WSW,239,10.4,10.4,75,0.00,CLR,,0.00,WeatherDisplay:10.37,2013-02-27 14:47:00,
2013-02-27 09:52:00,46.4,38.9,29.10,SW,222,8.1,8.1,75,0.00,CLR,,0.00,WeatherDisplay:10.37,2013-02-27 14:52:00,
2013-02-27 09:57:00,46.8,39.3,29.10,WNW,289,11.5,11.5,75,0.00,CLR,,0.00,WeatherDisplay:10.37,2013-02-27 14:57:00,
2013-02-27 10:02:00,47.3,39.8,29.10,NNW,336,6.9,6.9,75,0.00,CLR,,0.00,WeatherDisplay:10.37,2013-02-27 15:02:00,
2013-02-27 10:07:00,47.6,39.0,29.10,West,268,8.1,8.1,72,0.00,CLR,,0.00,WeatherDisplay:10.37,2013-02-27 15:07:00,
2013-02-27 10:12:00,48.0,39.8,29.10,NW,308,5.8,5.8,73,0.00,CLR,,0.00,WeatherDisplay:10.37,2013-02-27 15:12:00,
2013-02-27 10:18:00,48.3,38.6,29.10,WSW,244,10.4,10.4,69,0.00,CLR,,0.00,WeatherDisplay:10.37,2013-02-27 15:18:00,
2013-02-27 10:23:00,48.5,38.4,29.10,WSW,257,8.1,8.1,68,0.00,CLR,,0.00,WeatherDisplay:10.37,2013-02-27 15:23:00,
2013-02-27 10:28:00,48.9,38.4,29.10,North,359,6.9,6.9,67,0.00,CLR,,0.00,WeatherDisplay:10.37,2013-02-27 15:28:00,
2013-02-27 10:33:00,49.2,37.9,29.10,West,277,13.8,13.8,65,0.00,CLR,,0.00,WeatherDisplay:10.37,2013-02-27 15:33:00,
2013-02-27 10:38:00,49.8,38.9,29.10,NNW,333,8.1,8.1,66,0.00,CLR,,0.00,WeatherDisplay:10.37,2013-02-27 15:38:00,
2013-02-27 10:43:00,49.9,38.2,29.11,SSW,205,8.1,8.1,64,0.00,CLR,,0.00,WeatherDisplay:10.37,2013-02-27 15:43:00,
2013-02-27 10:48:00,49.9,37.8,29.11,West,272,6.9,6.9,63,0.00,CLR,,0.00,WeatherDisplay:10.37,2013-02-27 15:48:00,
2013-02-27 10:53:00,50.4,37.0,29.11,West,263,18.4,18.4,60,0.00,CLR,,0.00,WeatherDisplay:10.37,2013-02-27 15:53:00,
2013-02-27 10:58:00,50.2,36.4,29.11,West,265,8.1,8.1,59,0.00,CLR,,0.00,WeatherDisplay:10.37,2013-02-27 15:58:00,
2013-02-27 11:03:00,51.0,38.0,29.11,SSW,198,3.5,3.5,61,0.00,CLR,,0.00,WeatherDisplay:10.37,2013-02-27 16:03:00,
2013-02-27 11:08:00,51.4,37.1,29.11,West,281,13.8,13.8,58,0.00,CLR,,0.00,WeatherDisplay:10.37,2013-02-27 16:08:00,
2013-02-27 11:13:00,51.1,36.4,29.11,WSW,246,5.8,5.8,57,0.00,CLR,,0.00,WeatherDisplay:10.37,2013-02-27 16:13:00,
2013-02-27 11:18:00,51.1,36.4,29.11,West,264,12.7,12.7,57,0.00,CLR,,0.00,WeatherDisplay:10.37,2013-02-27 16:18:00,
2013-02-27 11:23:00,51.4,36.7,29.11,WSW,251,13.0,13.0,57,0.00,CLR,,0.00,WeatherDisplay:10.37,2013-02-27 16:23:00,
2013-02-27 11:28:00,51.6,36.9,29.11,SW,230,11.5,11.5,57,0.00,CLR,,0.00,WeatherDisplay:10.37,2013-02-27 16:28:00,
2013-02-27 11:33:00,51.7,36.5,29.11,WNW,298,6.9,6.9,56,0.00,CLR,,0.00,WeatherDisplay:10.37,2013-02-27 16:33:00,
2013-02-27 11:38:00,52.0,36.3,29.11,WNW,296,10.4,10.4,55,0.00,CLR,,0.00,WeatherDisplay:10.37,2013-02-27 16:38:00,
2013-02-27 11:43:00,52.6,37.3,29.11,SW,236,11.5,11.5,56,0.00,CLR,,0.00,WeatherDisplay:10.37,2013-02-27 16:43:00,
2013-02-27 11:48:00,53.2,36.5,29.11,NNW,328,4.6,4.6,53,0.00,CLR,,0.00,WeatherDisplay:10.37,2013-02-27 16:48:00,
2013-02-27 11:53:00,53.3,36.6,29.11,WSW,258,11.5,11.5,53,0.00,CLR,,0.00,WeatherDisplay:10.37,2013-02-27 16:53:00,
2013-02-27 11:58:00,53.5,36.8,29.10,West,263,6.9,6.9,53,0.00,CLR,,0.00,WeatherDisplay:10.37,2013-02-27 16:58:00,
2013-02-27 12:03:00,53.6,35.9,29.10,WSW,239,10.4,10.4,51,0.00,CLR,,0.00,WeatherDisplay:10.37,2013-02-27 17:03:00,
2013-02-27 12:08:00,53.2,35.5,29.10,WNW,296,6.9,6.9,51,0.00,CLR,,0.00,WeatherDisplay:10.37,2013-02-27 17:08:00,
2013-02-27 12:13:00,53.2,36.0,29.10,North,359,4.6,4.6,52,0.00,CLR,,0.00,WeatherDisplay:10.37,2013-02-27 17:13:00,
2013-02-27 12:18:00,53.3,35.6,29.10,WSW,246,6.9,6.9,51,0.00,CLR,,0.00,WeatherDisplay:10.37,2013-02-27 17:18:00,
2013-02-27 12:23:00,53.5,35.8,29.10,West,272,11.5,11.5,51,0.00,CLR,,0.00,WeatherDisplay:10.37,2013-02-27 17:23:00,
2013-02-27 12:28:00,53.3,34.6,29.09,WSW,246,11.5,11.5,49,0.00,CLR,,0.00,WeatherDisplay:10.37,2013-02-27 17:28:00,
2013-02-27 12:33:00,53.6,34.9,29.09,West,277,7.0,7.0,49,0.00,CLR,,0.00,WeatherDisplay:10.37,2013-02-27 17:33:00,
2013-02-27 12:38:00,53.8,34.6,29.09,WSW,241,13.8,13.8,48,0.00,CLR,,0.00,WeatherDisplay:10.37,2013-02-27 17:38:00,
2013-02-27 12:43:00,53.9,34.6,29.09,SSW,209,6.0,6.0,48,0.00,CLR,,0.00,WeatherDisplay:10.37,2013-02-27 17:43:00,
2013-02-27 12:48:00,54.7,36.4,29.09,North,357,5.8,5.8,50,0.00,CLR,,0.00,WeatherDisplay:10.37,2013-02-27 17:48:00,
2013-02-27 12:53:00,55.1,35.2,29.09,WSW,257,5.8,5.8,47,0.00,CLR,,0.00,WeatherDisplay:10.37,2013-02-27 17:53:00,
2013-02-27 12:58:00,55.3,35.4,29.09,WNW,295,9.2,9.2,47,0.00,CLR,,0.00,WeatherDisplay:10.37,2013-02-27 17:58:00,
2013-02-27 13:03:00,55.3,34.9,29.09,SSW,196,11.5,11.5,46,0.00,CLR,,0.00,WeatherDisplay:10.37,2013-02-27 18:03:00,
2013-02-27 13:08:00,55.1,35.2,29.09,WNW,289,10.4,10.4,47,0.00,CLR,,0.00,WeatherDisplay:10.37,2013-02-27 18:08:00,
2013-02-27 13:13:00,55.3,34.3,29.08,SW,226,11.0,11.0,45,0.00,CLR,,0.00,WeatherDisplay:10.37,2013-02-27 18:13:00,
2013-02-27 13:18:00,55.3,34.3,29.08,WSW,257,8.0,8.0,45,0.00,CLR,,0.00,WeatherDisplay:10.37,2013-02-27 18:18:00,
2013-02-27 13:23:00,55.6,34.6,29.08,WNW,289,6.9,6.9,45,0.00,CLR,,0.00,WeatherDisplay:10.37,2013-02-27 18:23:00,
2013-02-27 13:28:00,56.5,35.4,29.07,North,350,5.8,5.8,45,0.00,CLR,,0.00,WeatherDisplay:10.37,2013-02-27 18:28:00,
2013-02-27 13:33:00,56.5,33.7,29.07,WNW,295,10.4,10.4,42,0.00,CLR,,0.00,WeatherDisplay:10.37,2013-02-27 18:33:00,
2013-02-27 13:38:00,56.6,33.2,29.07,WSW,247,11.5,11.5,41,0.00,CLR,,0.00,WeatherDisplay:10.37,2013-02-27 18:38:00,
2013-02-27 13:43:00,56.2,33.4,29.07,WNW,294,13.8,13.8,42,0.00,CLR,,0.00,WeatherDisplay:10.37,2013-02-27 18:43:00,
2013-02-27 13:48:00,56.2,34.0,29.07,NNE,18,6.9,6.9,43,0.00,CLR,,0.00,WeatherDisplay:10.37,2013-02-27 18:48:00,
2013-02-27 13:53:00,56.3,33.5,29.07,NE,51,8.1,8.1,42,0.00,CLR,,0.00,WeatherDisplay:10.37,2013-02-27 18:53:00,
2013-02-27 13:58:00,56.7,35.0,29.06,WSW,257,11.5,11.5,44,0.00,CLR,,0.00,WeatherDisplay:10.37,2013-02-27 18:58:00,
2013-02-27 14:03:00,56.6,33.2,29.06,West,268,9.2,9.2,41,0.00,CLR,,0.00,WeatherDisplay:10.37,2013-02-27 19:03:00,
2013-02-27 14:08:00,56.6,34.3,29.06,North,0,11.5,11.5,43,0.00,CLR,,0.00,WeatherDisplay:10.37,2013-02-27 19:08:00,
2013-02-27 14:13:00,57.0,34.7,29.07,WSW,247,8.0,8.0,43,0.00,CLR,,0.00,WeatherDisplay:10.37,2013-02-27 19:13:00,
2013-02-27 14:18:00,56.9,34.0,29.07,WSW,237,15.0,15.0,42,0.00,CLR,,0.00,WeatherDisplay:10.37,2013-02-27 19:18:00,
2013-02-27 14:23:00,56.7,32.6,29.07,South,184,16.1,16.1,40,0.00,CLR,,0.00,WeatherDisplay:10.37,2013-02-27 19:23:00,
2013-02-27 14:28:00,57.0,32.9,29.07,SSW,205,13.0,13.0,40,0.00,CLR,,0.00,WeatherDisplay:10.37,2013-02-27 19:28:00,
2013-02-27 14:33:00,56.9,32.8,29.07,SW,234,11.5,11.5,40,0.00,CLR,,0.00,WeatherDisplay:10.37,2013-02-27 19:33:00,
2013-02-27 14:38:00,57.0,32.9,29.07,WNW,282,11.5,11.5,40,0.00,CLR,,0.00,WeatherDisplay:10.37,2013-02-27 19:38:00,
2013-02-27 14:43:00,57.3,33.2,29.06,WNW,296,9.2,9.2,40,0.00,CLR,,0.00,WeatherDisplay:10.37,2013-02-27 19:43:00,
2013-02-27 14:48:00,57.2,32.4,29.06,West,261,11.5,11.5,39,0.00,CLR,,0.00,WeatherDisplay:10.37,2013-02-27 19:48:00,
2013-02-27 14:53:00,57.2,34.3,29.06,WSW,241,11.5,11.5,42,0.00,CLR,,0.00,WeatherDisplay:10.37,2013-02-27 19:53:00,
2013-02-27 14:58:00,57.5,34.6,29.06,SW,223,14.0,14.0,42,0.00,CLR,,0.00,WeatherDisplay:10.37,2013-02-27 19:58:00,
2013-02-27 15:03:00,57.5,34.0,29.06,WSW,239,8.1,8.1,41,0.00,CLR,,0.00,WeatherDisplay:10.37,2013-02-27 20:03:00,
2013-02-27 15:08:00,57.5,34.0,29.06,West,264,8.1,8.1,41,0.00,CLR,,0.00,WeatherDisplay:10.37,2013-02-27 20:08:00,
2013-02-27 15:13:00,58.0,33.2,29.06,South,186,15.0,15.0,39,0.00,CLR,,0.00,WeatherDisplay:10.37,2013-02-27 20:13:00,
2013-02-27 15:18:00,58.3,32.8,29.06,SW,230,6.0,6.0,38,0.00,CLR,,0.00,WeatherDisplay:10.37,2013-02-27 20:18:00,
2013-02-27 15:23:00,58.3,34.1,29.06,WNW,285,8.1,8.1,40,0.00,CLR,,0.00,WeatherDisplay:10.37,2013-02-27 20:23:00,
2013-02-27 15:28:00,57.8,35.4,29.06,SSW,200,11.5,11.5,43,0.00,CLR,,0.00,WeatherDisplay:10.37,2013-02-27 20:28:00,
2013-02-27 15:33:00,58.0,34.4,29.06,WSW,240,5.8,5.8,41,0.00,CLR,,0.00,WeatherDisplay:10.37,2013-02-27 20:33:00,
2013-02-27 15:38:00,58.3,34.1,29.06,WSW,240,10.4,10.4,40,0.00,CLR,,0.00,WeatherDisplay:10.37,2013-02-27 20:38:00,
2013-02-27 15:43:00,58.3,34.7,29.06,SSW,199,8.1,8.1,41,0.00,CLR,,0.00,WeatherDisplay:10.37,2013-02-27 20:43:00,
2013-02-27 15:48:00,58.4,34.2,29.06,WSW,253,11.5,11.5,40,0.00,CLR,,0.00,WeatherDisplay:10.37,2013-02-27 20:48:00,
2013-02-27 15:53:00,58.4,36.0,29.06,SW,219,6.9,6.9,43,0.00,CLR,,0.00,WeatherDisplay:10.37,2013-02-27 20:53:00,
2013-02-27 15:58:00,58.3,34.7,29.05,WSW,240,11.5,11.5,41,0.00,CLR,,0.00,WeatherDisplay:10.37,2013-02-27 20:58:00,
2013-02-27 16:03:00,57.8,34.8,29.05,WSW,257,10.4,10.4,42,0.00,CLR,,0.00,WeatherDisplay:10.37,2013-02-27 21:03:00,
2013-02-27 16:08:00,57.8,34.2,29.05,WSW,251,8.1,8.1,41,0.00,CLR,,0.00,WeatherDisplay:10.37,2013-02-27 21:08:00,
2013-02-27 16:13:00,58.1,34.5,29.05,WSW,253,8.1,8.1,41,0.00,CLR,,0.00,WeatherDisplay:10.37,2013-02-27 21:13:00,
2013-02-27 16:18:00,58.0,34.4,29.05,WSW,241,7.0,7.0,41,0.00,CLR,,0.00,WeatherDisplay:10.37,2013-02-27 21:18:00,
2013-02-27 16:23:00,57.8,34.2,29.05,WSW,248,12.7,12.7,41,0.00,CLR,,0.00,WeatherDisplay:10.37,2013-02-27 21:23:00,
2013-02-27 16:28:00,57.6,35.2,29.05,SW,219,11.5,11.5,43,0.00,CLR,,0.00,WeatherDisplay:10.37,2013-02-27 21:28:00,
2013-02-27 16:33:00,57.6,34.7,29.05,WSW,237,8.1,8.1,42,0.00,CLR,,0.00,WeatherDisplay:10.37,2013-02-27 21:33:00,
2013-02-27 16:38:00,57.8,34.8,29.05,SW,236,8.1,8.1,42,0.00,CLR,,0.00,WeatherDisplay:10.37,2013-02-27 21:38:00,
2013-02-27 16:43:00,57.8,35.4,29.05,WSW,247,6.9,6.9,43,0.00,CLR,,0.00,WeatherDisplay:10.37,2013-02-27 21:43:00,
2013-02-27 16:48:00,58.0,35.6,29.05,WSW,250,5.8,5.8,43,0.00,CLR,,0.00,WeatherDisplay:10.37,2013-02-27 21:48:00,
2013-02-27 16:53:00,57.8,34.8,29.05,SSW,203,8.1,8.1,42,0.00,CLR,,0.00,WeatherDisplay:10.37,2013-02-27 21:53:00,
2013-02-27 16:58:00,57.6,35.2,29.05,WSW,256,9.0,9.0,43,0.00,CLR,,0.00,WeatherDisplay:10.37,2013-02-27 21:58:00,
2013-02-27 17:03:00,57.6,35.2,29.05,WSW,254,5.8,5.8,43,0.00,CLR,,0.00,WeatherDisplay:10.37,2013-02-27 22:03:00,
2013-02-27 17:08:00,57.5,35.2,29.05,SW,234,11.5,11.5,43,0.00,CLR,,0.00,WeatherDisplay:10.37,2013-02-27 22:08:00,
2013-02-27 17:13:00,57.2,34.9,29.06,WNW,295,10.4,10.4,43,0.00,CLR,,0.00,WeatherDisplay:10.37,2013-02-27 22:13:00,
2013-02-27 17:18:00,57.0,35.3,29.06,SW,222,9.2,9.2,44,0.00,CLR,,0.00,WeatherDisplay:10.37,2013-02-27 22:18:00,
2013-02-27 17:23:00,56.9,36.3,29.06,SW,217,2.3,2.3,46,0.00,CLR,,0.00,WeatherDisplay:10.37,2013-02-27 22:23:00,
2013-02-27 17:28:00,56.7,36.1,29.06,SW,230,2.3,0.0,46,0.00,CLR,,0.00,WeatherDisplay:10.37,2013-02-27 22:28:00,
2013-02-27 17:33:00,56.6,36.6,29.06,SW,215,3.5,3.5,47,0.00,CLR,,0.00,WeatherDisplay:10.37,2013-02-27 22:33:00,
2013-02-27 17:38:00,56.5,36.5,29.06,WSW,243,8.1,8.1,47,0.00,CLR,,0.00,WeatherDisplay:10.37,2013-02-27 22:38:00,
2013-02-27 17:44:00,56.3,36.8,29.05,WSW,250,5.8,5.8,48,0.00,CLR,,0.00,WeatherDisplay:10.37,2013-02-27 22:44:00,
2013-02-27 17:49:00,56.0,36.6,29.05,WSW,241,5.8,5.8,48,0.00,CLR,,0.00,WeatherDisplay:10.37,2013-02-27 22:49:00,
2013-02-27 17:54:00,55.6,37.2,29.05,WSW,258,3.5,3.5,50,0.00,CLR,,0.00,WeatherDisplay:10.37,2013-02-27 22:54:00,
2013-02-27 17:59:00,55.3,37.5,29.06,SW,216,2.3,2.3,51,0.00,CLR,,0.00,WeatherDisplay:10.37,2013-02-27 22:59:00,
2013-02-27 18:04:00,55.0,37.2,29.06,SW,216,1.1,1.1,51,0.00,CLR,,0.00,WeatherDisplay:10.37,2013-02-27 23:04:00,
2013-02-27 18:09:00,54.8,37.5,29.06,SW,216,1.1,0.0,52,0.00,CLR,,0.00,WeatherDisplay:10.37,2013-02-27 23:09:00,
2013-02-27 18:14:00,54.5,37.7,29.06,SW,216,2.0,0.0,53,0.00,CLR,,0.00,WeatherDisplay:10.37,2013-02-27 23:14:00,
2013-02-27 18:19:00,54.2,37.9,29.06,SW,216,0.0,0.0,54,0.00,CLR,,0.00,WeatherDisplay:10.37,2013-02-27 23:19:00,
2013-02-27 18:24:00,53.9,37.6,29.06,SSW,205,5.8,5.8,54,0.00,CLR,,0.00,WeatherDisplay:10.37,2013-02-27 23:24:00,
2013-02-27 18:29:00,53.6,37.8,29.07,SSW,205,2.3,0.0,55,0.00,CLR,,0.00,WeatherDisplay:10.37,2013-02-27 23:29:00,
2013-02-27 18:34:00,53.5,37.7,29.07,SSW,212,3.5,3.5,55,0.00,CLR,,0.00,WeatherDisplay:10.37,2013-02-27 23:34:00,
2013-02-27 18:39:00,53.2,37.4,29.07,SW,215,3.5,3.5,55,0.00,CLR,,0.00,WeatherDisplay:10.37,2013-02-27 23:39:00,
2013-02-27 18:44:00,53.2,37.9,29.07,SW,220,0.0,0.0,56,0.00,CLR,,0.00,WeatherDisplay:10.37,2013-02-27 23:44:00,
2013-02-27 18:49:00,52.9,37.6,29.07,SW,224,3.0,3.0,56,0.00,CLR,,0.00,WeatherDisplay:10.37,2013-02-27 23:49:00,
2013-02-27 18:54:00,52.8,38.0,29.07,SW,220,3.5,3.5,57,0.00,CLR,,0.00,WeatherDisplay:10.37,2013-02-27 23:54:00,
2013-02-27 18:59:00,52.6,38.2,29.08,WSW,241,4.6,4.6,58,0.00,CLR,,0.00,WeatherDisplay:10.37,2013-02-27 23:59:00,
2013-02-27 19:04:00,52.3,38.4,29.08,SW,215,8.1,8.1,59,0.00,CLR,,0.00,WeatherDisplay:10.37,2013-02-28 00:04:00,
2013-02-27 19:09:00,52.3,38.4,29.08,WSW,246,6.9,6.9,59,0.00,CLR,,0.00,WeatherDisplay:10.37,2013-02-28 00:09:00,
2013-02-27 19:14:00,52.3,38.4,29.07,SSW,213,5.8,5.8,59,0.00,CLR,,0.00,WeatherDisplay:10.37,2013-02-28 00:14:00,
2013-02-27 19:19:00,52.0,38.1,29.07,WSW,256,8.1,8.1,59,0.00,CLR,,0.00,WeatherDisplay:10.37,2013-02-28 00:19:00,
2013-02-27 19:24:00,52.0,38.1,29.07,SW,217,5.8,5.8,59,0.00,CLR,,0.00,WeatherDisplay:10.37,2013-02-28 00:24:00,
2013-02-27 19:29:00,51.9,38.0,29.07,WSW,251,6.9,6.9,59,0.00,CLR,,0.00,WeatherDisplay:10.37,2013-02-28 00:29:00,
2013-02-27 19:34:00,51.9,38.0,29.07,SW,234,7.0,7.0,59,0.00,CLR,,0.00,WeatherDisplay:10.37,2013-02-28 00:34:00,
2013-02-27 19:39:00,51.9,38.4,29.07,SSW,209,5.8,5.8,60,0.00,CLR,,0.00,WeatherDisplay:10.37,2013-02-28 00:39:00,
2013-02-27 19:44:00,51.6,38.2,29.07,SSW,212,6.0,6.0,60,0.00,CLR,,0.00,WeatherDisplay:10.37,2013-02-28 00:44:00,
2013-02-27 19:49:00,51.4,38.0,29.07,South,182,6.9,6.9,60,0.00,CLR,,0.00,WeatherDisplay:10.37,2013-02-28 00:49:00,
2013-02-27 19:54:00,51.3,37.9,29.07,South,188,5.8,5.8,60,0.00,CLR,,0.00,WeatherDisplay:10.37,2013-02-28 00:54:00,
2013-02-27 19:59:00,51.1,38.1,29.07,SSW,202,2.3,2.3,61,0.00,CLR,,0.00,WeatherDisplay:10.37,2013-02-28 00:59:00,
2013-02-27 20:04:00,51.0,38.0,29.07,SW,232,1.1,1.1,61,0.00,CLR,,0.00,WeatherDisplay:10.37,2013-02-28 01:04:00,
2013-02-27 20:09:00,50.4,38.3,29.07,SW,229,0.0,0.0,63,0.00,CLR,,0.00,WeatherDisplay:10.37,2013-02-28 01:09:00,
2013-02-27 20:14:00,50.1,38.0,29.07,SW,220,4.6,4.6,63,0.00,CLR,,0.00,WeatherDisplay:10.37,2013-02-28 01:14:00,
2013-02-27 20:19:00,50.4,38.3,29.07,SW,219,6.9,6.9,63,0.00,CLR,,0.00,WeatherDisplay:10.37,2013-02-28 01:19:00,
2013-02-27 20:24:00,50.4,38.3,29.07,WSW,258,6.0,6.0,63,0.00,CLR,,0.00,WeatherDisplay:10.37,2013-02-28 01:24:00,
2013-02-27 20:29:00,50.5,38.4,29.07,WSW,241,6.9,6.9,63,0.00,CLR,,0.00,WeatherDisplay:10.37,2013-02-28 01:29:00,
2013-02-27 20:34:00,50.4,38.3,29.07,WSW,237,3.5,0.0,63,0.00,CLR,,0.00,WeatherDisplay:10.37,2013-02-28 01:34:00,
2013-02-27 20:39:00,50.2,38.1,29.07,SW,232,6.0,6.0,63,0.00,CLR,,0.00,WeatherDisplay:10.37,2013-02-28 01:39:00,
2013-02-27 20:44:00,50.2,38.1,29.06,SSW,206,5.8,5.8,63,0.00,CLR,,0.00,WeatherDisplay:10.37,2013-02-28 01:44:00,
2013-02-27 20:49:00,50.1,38.0,29.06,SSW,213,10.4,10.4,63,0.00,CLR,,0.00,WeatherDisplay:10.37,2013-02-28 01:49:00,
2013-02-27 20:54:00,49.9,38.2,29.06,SSW,213,4.6,4.6,64,0.00,CLR,,0.00,WeatherDisplay:10.37,2013-02-28 01:54:00,
2013-02-27 20:59:00,49.8,38.1,29.06,SW,216,4.6,4.6,64,0.00,CLR,,0.00,WeatherDisplay:10.37,2013-02-28 01:59:00,
2013-02-27 21:04:00,49.8,38.1,29.06,WSW,256,5.8,5.8,64,0.00,CLR,,0.00,WeatherDisplay:10.37,2013-02-28 02:04:00,
2013-02-27 21:09:00,49.8,38.1,29.06,WSW,244,8.1,8.1,64,0.00,CLR,,0.00,WeatherDisplay:10.37,2013-02-28 02:09:00,
2013-02-27 21:14:00,49.6,37.9,29.06,WSW,254,6.0,6.0,64,0.00,CLR,,0.00,WeatherDisplay:10.37,2013-02-28 02:14:00,
2013-02-27 21:19:00,49.5,38.2,29.06,WSW,241,6.9,6.9,65,0.00,CLR,,0.00,WeatherDisplay:10.37,2013-02-28 02:19:00,
2013-02-27 21:24:00,49.6,37.9,29.06,WSW,237,9.0,9.0,64,0.00,CLR,,0.00,WeatherDisplay:10.37,2013-02-28 02:24:00,
2013-02-27 21:29:00,49.6,37.9,29.06,SSW,203,5.8,5.8,64,0.00,CLR,,0.00,WeatherDisplay:10.37,2013-02-28 02:29:00,
2013-02-27 21:34:00,49.4,38.1,29.06,SW,236,5.0,5.0,65,0.00,CLR,,0.00,WeatherDisplay:10.37,2013-02-28 02:34:00,
2013-02-27 21:39:00,49.4,38.1,29.06,WSW,243,5.0,5.0,65,0.00,CLR,,0.00,WeatherDisplay:10.37,2013-02-28 02:39:00,
2013-02-27 21:44:00,49.4,38.1,29.06,West,267,11.5,11.5,65,0.00,CLR,,0.00,WeatherDisplay:10.37,2013-02-28 02:44:00,
2013-02-27 21:49:00,49.2,38.3,29.06,SW,234,6.9,6.9,66,0.00,CLR,,0.00,WeatherDisplay:10.37,2013-02-28 02:49:00,
2013-02-27 21:54:00,49.1,38.2,29.06,WSW,256,5.8,5.8,66,0.00,CLR,,0.00,WeatherDisplay:10.37,2013-02-28 02:54:00,
2013-02-27 21:59:00,48.9,38.0,29.07,WSW,247,7.0,7.0,66,0.00,CLR,,0.00,WeatherDisplay:10.37,2013-02-28 02:59:00,
2013-02-27 22:04:00,48.8,38.3,29.07,SW,236,6.0,6.0,67,0.00,CLR,,0.00,WeatherDisplay:10.37,2013-02-28 03:04:00,
2013-02-27 22:09:00,48.6,38.1,29.07,WSW,256,6.9,6.9,67,0.00,CLR,,0.00,WeatherDisplay:10.37,2013-02-28 03:09:00,
2013-02-27 22:14:00,48.5,38.0,29.07,WSW,253,3.5,3.5,67,0.00,CLR,,0.00,WeatherDisplay:10.37,2013-02-28 03:14:00,
2013-02-27 22:19:00,48.3,38.2,29.07,SW,224,5.8,5.8,68,0.00,CLR,,0.00,WeatherDisplay:10.37,2013-02-28 03:19:00,
2013-02-27 22:24:00,48.2,38.1,29.07,West,267,6.9,6.9,68,0.00,CLR,,0.00,WeatherDisplay:10.37,2013-02-28 03:24:00,
2013-02-27 22:29:00,48.2,38.1,29.07,WSW,258,5.8,5.8,68,0.00,CLR,,0.00,WeatherDisplay:10.37,2013-02-28 03:29:00,
2013-02-27 22:34:00,48.0,38.3,29.07,SSW,209,6.9,6.9,69,0.00,CLR,,0.00,WeatherDisplay:10.37,2013-02-28 03:34:00,
2013-02-27 22:39:00,48.0,38.3,29.07,SW,234,5.8,5.8,69,0.00,CLR,,0.00,WeatherDisplay:10.37,2013-02-28 03:39:00,
2013-02-27 22:44:00,47.9,38.2,29.06,WSW,246,5.8,5.8,69,0.00,CLR,,0.00,WeatherDisplay:10.37,2013-02-28 03:44:00,
2013-02-27 22:49:00,47.7,38.0,29.06,WSW,251,4.6,4.6,69,0.00,CLR,,0.00,WeatherDisplay:10.37,2013-02-28 03:49:00,
2013-02-27 22:54:00,47.6,38.3,29.06,SW,220,3.5,3.5,70,0.00,CLR,,0.00,WeatherDisplay:10.37,2013-02-28 03:54:00,
2013-02-27 22:59:00,47.4,38.1,29.06,SW,229,5.8,5.8,70,0.00,CLR,,0.00,WeatherDisplay:10.37,2013-02-28 03:59:00,
2013-02-27 23:04:00,47.4,38.1,29.06,WSW,237,3.5,3.5,70,0.00,CLR,,0.00,WeatherDisplay:10.37,2013-02-28 04:04:00,
2013-02-27 23:09:00,47.3,38.0,29.06,WSW,239,1.1,1.1,70,0.00,CLR,,0.00,WeatherDisplay:10.37,2013-02-28 04:09:00,
2013-02-27 23:14:00,47.1,37.8,29.05,SW,226,3.5,3.5,70,0.00,CLR,,0.00,WeatherDisplay:10.37,2013-02-28 04:14:00,
2013-02-27 23:19:00,47.0,37.7,29.05,SW,234,1.1,1.7,70,0.00,CLR,,0.00,WeatherDisplay:10.37,2013-02-28 04:19:00,
2013-02-27 23:24:00,46.8,37.9,29.05,SW,230,3.5,3.5,71,0.00,CLR,,0.00,WeatherDisplay:10.37,2013-02-28 04:24:00,
2013-02-27 23:29:00,46.7,37.8,29.05,SW,229,2.3,2.3,71,0.00,CLR,,0.00,WeatherDisplay:10.37,2013-02-28 04:29:00,
2013-02-27 23:34:00,46.5,37.6,29.05,SSW,213,3.5,0.0,71,0.00,CLR,,0.00,WeatherDisplay:10.37,2013-02-28 04:34:00,
2013-02-27 23:39:00,46.4,37.9,29.05,SW,215,1.1,0.0,72,0.00,CLR,,0.00,WeatherDisplay:10.37,2013-02-28 04:39:00,
2013-02-27 23:44:00,46.4,37.9,29.04,WSW,243,3.5,3.5,72,0.00,CLR,,0.00,WeatherDisplay:10.37,2013-02-28 04:44:00,
2013-02-27 23:49:00,46.5,38.0,29.04,SW,227,3.5,3.5,72,0.00,CLR,,0.00,WeatherDisplay:10.37,2013-02-28 04:49:00,
2013-02-27 23:54:00,46.7,38.1,29.04,WSW,253,5.8,5.8,72,0.00,CLR,,0.00,WeatherDisplay:10.37,2013-02-28 04:54:00,
2013-02-27 23:59:00,46.8,37.9,29.04,SW,236,3.5,3.5,71,0.00,CLR,,0.00,WeatherDisplay:10.37,2013-02-28 04:59:00,